XM-5

Last updated on Thu Nov 21 2024 00:02:41 GMT+0000 (Coordinated Universal Time)

1 37185U 10053A 24324.48625925 -.00000021 00000+0 00000+0 0 9991 2 37185 0.0146 344.8251 0000275 208.1006 285.9576 1.00268271 51729
UTC large
Height (km)
Speed (km/s)
/
Latitude / Longitude
Inclination (degrees)
Orbital Period (minutes)
Azimuth
Elevation
Range (km)
Doppler Factor

Next 0 passes for location: London (51.5072 / 0.1276)

Sorry there are no passes over London.